Location: Unspecified
(0.0000°N, 0.0000°E)
Time: 09:39:23
(UTC+00:00)

PAYLOAD E - Pass Details

Date: 12 June 2023
Orbit: 1415 x 1418 km, 82.5° (Epoch: 28 September)

Event Time Altitude Azimuth Distance (km) Brightness Sun altitude
Rises 18:48:11 0° 166° (SSE) 4,491 10.1 -11.1°
Reaches altitude 10° 18:51:17 10° 158° (SSE) 3,513 9.5 -11.8°
Maximum altitude 18:58:53 38° 93° (E) 2,028 8.2 -13.5°
Drops below altitude 10° 19:06:26 10° 28° (NNE) 3,505 9.8 -15.3°
Sets 19:09:29 0° 21° (NNE) 4,480 10.5 -16.0°
